Starlink 11232

operational
NORAD ID: 60401 Int'l Des: 2024-141 Owner: SPXS Country: US Constellation: starlink
LEOCIRCULAR

关于 Starlink 11232

正在加载描述...

实时位置

正在加载3D地球...

即将过境

高度历史

Altitude vs Time

uPlot chart will show altitude changes over time

两行轨道根数

1 60401U 24141D 25354.08456162 -.00000052 00000-0 44223-5 0 9992
2 60401 53.1596 118.4220 0000507 53.5582 306.5482 15.69707871 79241
Epoch: Dec 20, 2025 • Age: 12 hours

当前状态

高度 362.5 km
速度 7.69 km/s
星下点 -8.98°S, 10.38°E
发射日期 Aug 10, 2024
运行时间 1.3 years
类型 internet

技术详情

分类 Payload
质量 960.00 kg
干质量 910.00 kg
总质量 960.00 kg
长度 0.30 m
直径 4.10 m
跨度 29.00 m
形状 Box + pan
制造商 SPXS
平台类型 Starlink V2MD
阶段状态 In Orbit
所有者/国家 SPXS/US

大型星座

Loading constellations...